Regional Weather Roundup
Issued by NWS

Home | Current Version | Previous Version | Text Only | Print | Product List | Glossary Off
Versions: 1 2 3 4 5 6 7 8 9 10 11 12 13 14 15 16 17 18 19 20 21 22 23 24 25 26 27 28 29 30 31 32 33 34 35 36 37 38 39 40 41 42 43 44 45 46 47 48 49 50

550
ASUS45 KSLC 211410
RWRUT

UTAH REGIONAL WEATHER ROUNDUP
NATIONAL WEATHER SERVICE SALT LAKE CITY UT
700 AM MST TUE FEB 21 2017

UTZ001>011-023>025-211500-

NORTHERN UTAH

CITY           SKY/WX    TMP DP  RH WIND       PRES   REMARKS
BRIGHAM CITY     N/A     49  38  65 SW10      30.02F
HILL AFB       CLEAR     48  37  66 S21G30    30.03R
LOGAN          CLOUDY    53  36  52 SW17G23   29.99S
OGDEN          CLEAR     49  38  65 S20       30.02S
SALT LAKE CITY PTCLDY    52  38  58 S25G35    30.04R
TOOELE VALLEY  CLEAR     52  37  58 S31G43    30.03R
WENDOVER       CLEAR     52  30  43 SW25G32   29.99S
HEBER CITY     CLOUDY    48  32  53 SW15      30.10F
WEST JORDAN    CLEAR     52  46  78 SE32G41   30.05R

$$

UTZ011>015-024>027-211500-

CENTRAL/NORTHEAST UTAH

CITY           SKY/WX    TMP DP  RH WIND       PRES   REMARKS
PROVO AIRPORT  PTCLDY    50  37  61 VRB3      30.14R
MOAB/CANYONLAN PTCLDY    38  35  89 CALM      30.22F
DELTA          CLEAR     46  37  71 S29G35    30.15R
PRICE          CLOUDY    39  36  89 E7        30.23S WCI  34
ROOSEVELT      CLOUDY    32  32 100 SW5       30.21R WCI  27
VERNAL         CLEAR     35  31  85 VRB3      30.17S

$$

UTZ013>016-019>022-027-211500-

SOUTHERN UTAH

CITY           SKY/WX    TMP DP  RH WIND       PRES   REMARKS
BRYCE CANYON   FOG       35  34  96 SE12      30.33S VSB 1/2 WCI  27
CEDAR CITY     PTCLDY    43  38  82 SW20G26   30.23S
MILFORD        CLOUDY    46  39  76 SW15      30.22S
ST GEORGE      MOSUNNY   49  42  77 SE9       30.28S
HANKSVILLE     PTCLDY    34  34 100 CALM      30.25S
BLANDING       MOCLDY    37  33  88 NE5       30.43S WCI  33

$$

REGIONAL REPORTS     COLORADO/ARIZONA

CITY           SKY/WX    TMP DP  RH WIND       PRES   REMARKS
CRAIG, CO      CLOUDY    41  30  65 SW13      30.19R
GRAND JUNCTION CLOUDY    42  35  76 E9        30.26S
RIFLE, CO      CLOUDY    39  36  89 CALM      30.26S
MONTROSE, CO   CLOUDY    38  30  73 SE12      30.33S WCI  30
CORTEZ, CO     CLOUDY    35  34  96 CALM      30.38R
COLORADO CITY  PTSUNNY   41  41 100 SE5       30.35S
PAGE, AZ       PTCLDY    41  35  79 CALM      30.30S
GRAND CANYON   PTCLDY    32  32 100 CALM      30.39S
KINGMAN, AZ    PTCLDY    43  38  82 SE3       30.32R
FLAGSTAFF, AZ  CLEAR     30  30 100 SW3       30.41R

$$

REGIONAL REPORTS    NEVADA/IDAHO/WYOMING

CITY           SKY/WX    TMP DP  RH WIND       PRES   REMARKS
LAS VEGAS, NV  MOCLDY    58  43  57 S7        30.19S
ELY, NY        PTCLDY    39  33  79 S16       30.10F WCI  30
ELKO, NV       CLOUDY    44  31  60 W8        29.98S
POCATELLO, ID  CLOUDY    47  36  65 S24G35    29.90S
BURLEY, ID     CLOUDY    47  35  63 VRB5      29.91R
FORT BRIDGER,    N/A     40  30  66 SW14      30.08S WCI  33
EVANSTON, WY   CLEAR     38  29  70 SW28      30.05R WCI  26
ROCK SPRINGS,  CLOUDY    39  28  64 SW8       30.06R WCI  33
KEMMERER, WY     N/A     37  32  81 SW22G29   30.04R WCI  27

$$




USA.gov is the U.S. government's official web portal to all federal, state and local government web resources and services.